Weather History for Benson, MN

Change the Weather History Date:

Tuesday, March 5, 2013

  Actual Average Record
Temperature  
Mean Temperature 21 °F -  
Max Temperature 28 °F 33 °F 57 °F (1987)
Min Temperature 14 °F 14 °F -15 °F (1960)
Degree Days  
Heating Degree Days 44    
Moisture  
Dew Point 20 °F    
Average Humidity 88    
Maximum Humidity 93    
Minimum Humidity 80    
Precipitation  
Precipitation 0.04 in - - ()
Sea Level Pressure  
Sea Level Pressure 30.13 in    
Wind  
Wind Speed 11 mph (NNE)    
Max Wind Speed 23 mph    
Max Gust Speed 30 mph    
Visibility 6 miles    
Events Snow    
Averages and records for this station are not official NWS values.
T = Trace of Precipitation, MM = Missing Value Source: NWS Daily Summary

Daily Weather History Graph

Daily Weather History Graph

Search for Another Location

Airport:

Trip Planner

Search our weather history database for the weather conditions in past years. The results will help you decide how hot, cold, wet, or windy it might be!

Date:

Astronomy

Mar. 05, 2013 Rise Set
Actual Time 6:53 AM CST 6:15 PM CST
Civil Twilight 6:23 AM CST 6:45 PM CST
Nautical Twilight 5:49 AM CST 7:19 PM CST
Astronomical Twilight 5:15 AM CST 7:53 PM CST
Moon 2:18 AM CST (3/5) 11:43 AM CST (3/5)
Length of Visible Light 12h 21m
Length of Day
11h 22m
Last Quarter, 40% of the Moon is Illuminated
Mar 5
Last Quarter
Mar 11
New
Mar 19
First Quarter
Mar 27
Full
Apr 2
Last Quarter

Hourly Weather History & Observations

Time (CST) Temp. Windchill Dew Point Humidity Pressure Visibility Wind Dir Wind Speed Gust Speed Precip Events Conditions
12:12 AM 24.8 °F 14.0 °F 21.2 °F 86% 29.91 in 5.0 mi SE 11.5 mph - N/A Snow Light Snow
12:33 AM 24.8 °F 12.9 °F 21.2 °F 86% 29.91 in 5.0 mi SE 13.8 mph - N/A Snow Light Snow
12:53 AM 24.8 °F 14.6 °F 23.0 °F 93% 29.92 in 5.0 mi SE 10.4 mph - N/A Snow Light Snow
1:12 AM 24.8 °F 14.6 °F 23.0 °F 93% 29.92 in 3.0 mi SE 10.4 mph - N/A Snow Light Snow
1:53 AM 24.8 °F 16.9 °F 21.2 °F 86% 29.92 in 3.0 mi SE 6.9 mph - N/A Snow Light Snow
2:33 AM 24.8 °F 16.1 °F 21.2 °F 86% 29.92 in 3.0 mi SE 8.1 mph - N/A Snow Light Snow
2:52 AM 24.8 °F 16.1 °F 21.2 °F 86% 29.92 in 3.0 mi SE 8.1 mph - N/A Snow Light Snow
3:13 AM 24.8 °F 16.9 °F 21.2 °F 86% 29.92 in 2.5 mi SE 6.9 mph - N/A Snow Light Snow
3:33 AM 24.8 °F 19.1 °F 21.2 °F 86% 29.93 in 2.0 mi SE 4.6 mph - N/A   Overcast
3:52 AM 24.8 °F 19.1 °F 21.2 °F 86% 29.93 in 2.0 mi ESE 4.6 mph - 0.01 in   Overcast
4:13 AM 23.0 °F 17.0 °F 21.2 °F 93% 29.93 in 2.5 mi ESE 4.6 mph - N/A   Overcast
4:52 AM 23.0 °F 18.4 °F 21.2 °F 93% 29.95 in 1.8 mi ENE 3.5 mph - N/A Snow Light Snow
5:13 AM 23.0 °F 17.0 °F 21.2 °F 93% 29.96 in 1.5 mi NE 4.6 mph - N/A Snow Light Snow
5:33 AM 23.0 °F 15.8 °F 21.2 °F 93% 29.97 in 1.8 mi NE 5.8 mph - N/A Snow Light Snow
5:52 AM 23.0 °F 14.7 °F 21.2 °F 93% 29.98 in 1.8 mi NE 6.9 mph - 0.01 in Snow Light Snow
6:13 AM 23.0 °F 13.9 °F 21.2 °F 93% 29.99 in 1.5 mi NE 8.1 mph - N/A Snow Light Snow
6:52 AM 23.0 °F 13.9 °F 21.2 °F 93% 30.01 in 1.8 mi NE 8.1 mph - N/A Snow Light Snow
7:13 AM 23.0 °F 13.9 °F 21.2 °F 93% 30.02 in 2.0 mi NE 8.1 mph - N/A Snow Light Snow
7:32 AM 23.0 °F 11.7 °F 21.2 °F 93% 30.02 in 3.0 mi NE 11.5 mph - N/A Snow Light Snow
7:52 AM 23.0 °F 13.1 °F 21.2 °F 93% 30.03 in 4.0 mi NNE 9.2 mph - N/A Snow Light Snow
8:13 AM 24.8 °F 15.3 °F 21.2 °F 86% 30.04 in 2.5 mi NNE 9.2 mph - N/A Snow Light Snow
8:32 AM 24.8 °F 15.3 °F 21.2 °F 86% 30.05 in 1.8 mi NNE 9.2 mph - N/A Snow Light Snow
8:53 AM 24.8 °F 15.3 °F 21.2 °F 86% 30.06 in 2.0 mi NNE 9.2 mph - N/A Snow Light Snow
9:13 AM 24.8 °F 14.6 °F 21.2 °F 86% 30.08 in 2.5 mi NNE 10.4 mph - N/A Snow Light Snow
9:32 AM 24.8 °F 14.0 °F 21.2 °F 86% 30.09 in 3.0 mi NNE 11.5 mph - N/A Snow Light Snow
9:53 AM 24.8 °F 14.0 °F 21.2 °F 86% 30.09 in 3.0 mi North 11.5 mph - N/A Snow Light Snow
10:13 AM 24.8 °F 13.4 °F 21.2 °F 86% 30.10 in 4.0 mi NNE 12.7 mph - 0.01 in Snow Light Snow
10:32 AM 26.6 °F 15.7 °F 21.2 °F 80% 30.10 in 2.5 mi NNE 12.7 mph - 0.01 in Snow Light Snow
10:53 AM 26.6 °F 15.2 °F 23.0 °F 86% 30.12 in 3.0 mi North 13.8 mph - 0.01 in Snow Light Snow
11:13 AM 26.6 °F 15.7 °F 23.0 °F 86% 30.12 in 3.0 mi North 12.7 mph - N/A   Overcast
11:32 AM 26.6 °F 15.7 °F 23.0 °F 86% 30.13 in 7.0 mi North 12.7 mph - N/A   Overcast
11:53 AM 28.4 °F 18.5 °F 23.0 °F 80% 30.13 in 10.0 mi NNE 11.5 mph - 0.01 in   Overcast
12:13 PM 28.4 °F 16.6 °F 23.0 °F 80% 30.13 in 7.0 mi NNE 16.1 mph 23.0 mph N/A   Overcast
12:32 PM 28.4 °F 17.0 °F 23.0 °F 80% 30.14 in 7.0 mi NNE 15.0 mph - N/A   Overcast
12:53 PM 28.4 °F 16.6 °F 23.0 °F 80% 30.14 in 10.0 mi North 16.1 mph - N/A   Overcast
1:12 PM 26.6 °F 13.1 °F 23.0 °F 86% 30.15 in 10.0 mi North 19.6 mph 24.2 mph N/A   Overcast
1:32 PM 26.6 °F 12.7 °F 23.0 °F 86% 30.16 in 10.0 mi North 20.7 mph - N/A   Overcast
1:53 PM 26.6 °F 13.1 °F 23.0 °F 86% 30.17 in 10.0 mi North 19.6 mph - N/A   Overcast
2:12 PM 26.6 °F 12.0 °F 21.2 °F 80% 30.17 in 5.0 mi North 23.0 mph 28.8 mph N/A Snow Light Snow
2:32 PM 26.6 °F 12.7 °F 23.0 °F 86% 30.18 in 2.5 mi North 20.7 mph 24.2 mph N/A Snow Light Snow
2:53 PM 26.6 °F 13.4 °F 23.0 °F 86% 30.18 in 3.0 mi North 18.4 mph 29.9 mph N/A Snow Light Snow
3:12 PM 26.6 °F 12.7 °F 23.0 °F 86% 30.19 in 3.0 mi North 20.7 mph - N/A Snow Light Snow
3:33 PM 26.6 °F 13.8 °F 23.0 °F 86% 30.20 in 7.0 mi North 17.3 mph 25.3 mph N/A Snow Light Snow
3:52 PM 26.6 °F 13.4 °F 21.2 °F 80% 30.20 in 7.0 mi North 18.4 mph 23.0 mph N/A Snow Light Snow
4:12 PM 24.8 °F 11.5 °F 21.2 °F 86% 30.21 in 10.0 mi North 17.3 mph 25.3 mph N/A Snow Light Snow
4:32 PM 24.8 °F 11.5 °F 21.2 °F 86% 30.22 in 10.0 mi North 17.3 mph 26.5 mph N/A Snow Light Snow
4:52 PM 24.8 °F 10.7 °F 19.4 °F 80% 30.23 in 10.0 mi North 19.6 mph - N/A Snow Light Snow
5:13 PM 23.0 °F 9.2 °F 19.4 °F 86% 30.24 in 10.0 mi North 17.3 mph - N/A Snow Light Snow
5:33 PM 21.2 °F 6.8 °F 19.4 °F 93% 30.25 in 10.0 mi North 17.3 mph 25.3 mph N/A   Clear
5:52 PM 21.2 °F 7.3 °F 19.4 °F 93% 30.26 in 10.0 mi North 16.1 mph - N/A   Clear
6:13 PM 19.4 °F 5.0 °F 17.6 °F 93% 30.27 in 10.0 mi North 16.1 mph - N/A   Clear
6:32 PM 19.4 °F 6.0 °F 17.6 °F 93% 30.28 in 10.0 mi North 13.8 mph - N/A   Clear
6:52 PM 17.6 °F 3.2 °F 15.8 °F 93% 30.28 in 10.0 mi North 15.0 mph - N/A   Clear
7:13 PM 17.6 °F 3.7 °F 15.8 °F 93% 30.28 in 10.0 mi North 13.8 mph - N/A   Clear
7:32 PM 17.6 °F 3.7 °F 15.8 °F 93% 30.29 in 10.0 mi North 13.8 mph - N/A   Clear
7:52 PM 17.6 °F 2.7 °F 15.8 °F 93% 30.30 in 10.0 mi North 16.1 mph - N/A   Clear
8:13 PM 15.8 °F 2.7 °F 14.0 °F 93% 30.31 in 10.0 mi North 11.5 mph - N/A   Clear
8:32 PM 17.6 °F 3.2 °F 14.0 °F 86% 30.31 in 10.0 mi North 15.0 mph - N/A   Clear
8:53 PM 15.8 °F 2.7 °F 12.2 °F 86% 30.31 in 10.0 mi North 11.5 mph - N/A   Clear
9:13 PM 15.8 °F 3.4 °F 12.2 °F 86% 30.31 in 10.0 mi North 10.4 mph - N/A   Clear
9:32 PM 14.0 °F 1.2 °F 12.2 °F 93% 30.31 in 10.0 mi North 10.4 mph - N/A   Clear
9:53 PM 14.0 °F 1.2 °F 12.2 °F 93% 30.33 in 10.0 mi North 10.4 mph - N/A   Clear
10:13 PM 14.0 °F 0.5 °F 12.2 °F 93% 30.33 in 10.0 mi North 11.5 mph - N/A   Scattered Clouds
10:32 PM 17.6 °F 4.3 °F 15.8 °F 93% 30.33 in 10.0 mi North 12.7 mph - N/A   Overcast
10:53 PM 19.4 °F 6.6 °F 17.6 °F 93% 30.33 in 10.0 mi North 12.7 mph - N/A   Overcast
11:13 PM 19.4 °F 5.5 °F 15.8 °F 86% 30.34 in 10.0 mi North 15.0 mph - N/A   Overcast
11:32 PM 17.6 °F 5.0 °F 15.8 °F 93% 30.34 in 10.0 mi North 11.5 mph - N/A   Overcast
11:53 PM 17.6 °F 6.4 °F 14.0 °F 86% 30.34 in 10.0 mi North 9.2 mph - N/A   Mostly Cloudy